パロマー彗星

C/2020 T2 ( Palomar )

English version
Home page
Updated on March 27, 2022

---------------------------------------------------------------------

・ プロフィール

発見日 2020年10月7日
発見光度 19.3等
発見者 Dmitry A. Duev (Palomar, Zwicky Transient Facility's Twilight Survey)

・ 写真集

・ 軌道要素

Epoch 2022 Jan. 21.0 TT = JDT 2459600.5
T 2021 July 11.17590 TT                                 Rudenko
q   2.0548467            (2000.0)            P               Q
z  +0.0031651      Peri.  150.39897     -0.53873074     +0.70316455
 +/-0.0000007      Node    83.04525     -0.83520963     -0.37357096
e   0.9934962      Incl.   27.87052     -0.11042675     -0.60498293
From 2565 observations 2019 Dec. 11-2021 Nov. 27, mean residual 0".4.

・ 星図

・ 光度変化

        m1 = 2.7 + 5 logΔ + 19.0 log r(t - 20)

---------------------------------------------------------------------

軌道要素はM.P.E.C. 2022-C56に掲載されたものです。
星図はステラナビゲータ Ver.10 (アストロアーツ) で作成したものです。
光度グラフはComet for Windowsで作成したものです。

---------------------------------------------------------------------

Copyright(C) Seiichi Yoshida (comet@aerith.net). All rights reserved.